User: anonymous   Login
Location: Gollag?dem
(16.8053°N, 80.8024°E)
Time: 01:56:43
(UTC+00:00)
Language:

VEP-3 - Orbit

View from above orbital plane
View from above orbital plane
View from above satellite
View from above satellite

Ground track
Ground track

The orbit data is extracted from the following two-line orbital elements,

1 27369U 02003C   20302.00580725 -.00000108 +00000-0 +00000-0 0  9996
2 27369 023.9321 106.8619 6894661 143.1894 294.1044 02.37195699161665
Epoch (UTC): 28 October 2020 00:08:21
Eccentricity: 0.6894661
inclination: 23.9321°
perigee height: 997 km
apogee height: 33746 km
right ascension of ascending node: 106.8619°
argument of perigee: 143.1894°
revolutions per day: 2.37195699
mean anomaly at epoch: 294.1044°
orbit number at epoch: 16166

The dashed part of the orbit path shows where the satellite is in the earth's shadow,  

DLR